Regional Weather Roundup
Issued by NWS

Home | Current Version | Previous Version | Text Only | Print | Product List | Glossary Off
Versions: 1 2 3 4 5 6 7 8 9 10 11 12 13 14 15 16 17 18 19 20 21 22 23 24 25 26 27 28 29 30 31 32 33 34 35 36 37 38 39 40 41 42 43 44 45 46 47 48 49 50

000
ASUS45 KSLC 272310
RWRUT

UTAH REGIONAL WEATHER ROUNDUP
NATIONAL WEATHER SERVICE SALT LAKE CITY UT
500 PM MDT THU AUG 27 2015

UTZ001>011-023>025-280000-

NORTHERN UTAH

CITY           SKY/WX    TMP DP  RH WIND       PRES   REMARKS
BRIGHAM CITY   MOSUNNY   86  45  24 S5        30.15F
HILL AFB       SUNNY     84  49  29 W6        30.19F
LOGAN          SUNNY     86  50  28 CALM      30.15F
OGDEN          SUNNY     83  49  30 S5        30.17F
PROVO AIRPORT  NOT AVBL
SALT LAKE CITY MOSUNNY   87  51  28 N8        30.14F
VERNAL         MOSUNNY   84  46  26 CALM      30.15F
WENDOVER       PTSUNNY   88  39  18 E10       30.16F
HEBER CITY     MOSUNNY   84  43  23 CALM      30.22F
WEST JORDAN    SUNNY     84  48  28 NW8       30.18F

$$

UTZ012>022-026-027-280000-

SOUTHERN/CENTRAL UTAH

CITY           SKY/WX    TMP DP  RH WIND       PRES   REMARKS
BLANDING       SUNNY     81  49  32 S5        30.29F
BRYCE CANYON   PTSUNNY   72  51  47 SE10      30.39F
CEDAR CITY     PTSUNNY   83  38  20 CALM      30.22F
DELTA          MOSUNNY   87  41  19 W5        30.17F
HANKSVILLE     PTSUNNY   86  46  25 CALM      30.14F
MILFORD        CLOUDY    86  43  22 NE8       30.19F
MOAB/CYNLANDS  SUNNY     87  54  32 NW8       30.11F
PRICE          MOSUNNY   86  39  19 N13G22    30.21F
ST GEORGE      PTCLDY    97  54  23 N7        30.03F HX  94
KANAB          MOSUNNY   84  54  34 CALM      30.24F

$$

REGIONAL REPORTS     COLORADO/ARIZONA

CITY           SKY/WX    TMP DP  RH WIND       PRES   REMARKS
CRAIG, CO      CLOUDY    77  52  41 W10       30.22F
GRAND JUNCTION MOSUNNY   83  57  41 SW6       30.14F
RIFLE          LGT RAIN  64  59  83 N3        30.23F
MONTROSE       MOSUNNY   79  54  41 W7        30.24F
CORTEZ         MOSUNNY   78  57  48 W6        30.22F
PAGE, AZ       SUNNY     90  48  23 VRB5      30.13F
GRAND CANYON   MOSUNNY   80  45  28 MISG      30.32F
KINGMAN        MOSUNNY   96  51  21 N9        30.07F HX  93
FLAGSTAFF      TSTM      60  57  89 SE8       30.39F

$$

REGIONAL REPORTS    NEVADA/IDAHO/WYOMING

CITY           SKY/WX    TMP DP  RH WIND       PRES   REMARKS
LAS VEGAS, NV  PTSUNNY  100  51  19 VRB6      29.93F HX  97
ELY            PTSUNNY   79  37  22 E14       30.30F
ELKO           MOSUNNY   89  32  13 SW13      30.18F
POCATELLO, ID  MOSUNNY   90  34  13 SW20      30.14F
BURLEY         SUNNY     86  39  19 W10       30.13F
EVANSTON, WY   MOSUNNY   78  37  22 NW14G25   30.33F
ROCK SPRINGS   LGT RAIN  71  32  23 CALM      30.28R
KEMMERER       MOSUNNY   72  41  33 W18G28    30.35R

$$


USA.gov is the U.S. government's official web portal to all federal, state and local government web resources and services.